Regional Weather Roundup
Issued by NWS

Home | Current Version | Previous Version | Graphics & Text | Print | Product List | Glossary On
Versions: 1 2 3 4 5 6 7 8 9 10 11 12 13 14 15 16 17 18 19 20 21 22 23 24 25 26 27 28 29 30 31 32 33 34 35 36 37 38 39 40 41 42 43 44 45 46 47 48 49 50
251
ASUS44 KLIX 240710
RWRLA
LOUISIANA WEATHER ROUNDUP
NATIONAL WEATHER SERVICE NEW ORLEANS LA
200 AM CDT THU JUL 24 2014

NOTE: "FAIR" INDICATES FEW OR NO CLOUDS BELOW 12,000 FEET WITH NO
      SIGNIFICANT WEATHER AND/OR OBSTRUCTIONS TO VISIBILITY.
      SKY/WX - SKY CONDITION AND SIGNIFICANT WEATHER.
      TMP - AIR TEMPERATURE.    DP   - DEWPOINT TEMPERATURE.
      RH  - RELATIVE HUMIDITY.  PRES - PRESSURE.
      HX  - HEAT INDEX.         WCI  - WIND CHILL INDEX.

*  THESE STATIONS ARE NOT NWS OR FAA STATIONS AND ARE NOT UNDER
   NWS QUALITY CONTROL.

LAZ040-048-061>063-065-066-069-240800-
SOUTHEAST LOUISIANA

CITY           SKY/WX    TMP DP  RH WIND       PRES   REMARKS
N.O. AUDUBON   NOT AVBL
N.O. INTL ARPT MOCLDY    76  72  87 SE3       29.97F
N.O. LAKEFRONT PTCLDY    77  73  87 CALM      29.98F
N.O. DOWNTOWN* FAIR      79  70  73 CALM      29.98S
SLIDELL        CLEAR     72  69  90 CALM      29.97F
BATON ROUGE    PTCLDY    76  73  91 CALM      29.96F
BOOTHVILLE       N/A     79  74  84 S6        29.98F
BELLE CHASSE   PTCLDY    75  71  87 CALM      29.97F
BOGALUSA*      FAIR      74  70  88 CALM      29.99F
GALLIANO*      NOT AVBL
NEW ROADS*     LGT RAIN  76  73  91 CALM      29.96F
GONZALES*      FAIR      73  73 100 CALM      29.96F
HAMMOND*       CLEAR     75  70  83 CALM      29.99F
HOUMA*         PTCLDY    73  69  88 CALM      29.97F
PORT FOURCHON* PTSUNNY   79  73  83 S9        29.98F

$$

LAZ041-044-053-054-240800-
SOUTHWEST LOUISIANA

CITY           SKY/WX    TMP DP  RH WIND       PRES   REMARKS
LAKE CHARLES   CLOUDY    74  71  91 E3        29.96F
LAFAYETTE      MOCLDY    77  73  87 CALM      29.96F
PATTERSON      CLEAR     73  73 100 SE3       30.00F
SALT POINT       N/A     79  75  87 CALM      29.96F
NEW IBERIA     PTCLDY    77  74  90 N3        29.97F
CHENAULT AIRPK CLOUDY    74  71  90 CALM      29.97F

$$

LAZ027-028-240800-
CENTRAL LOUISIANA

CITY           SKY/WX    TMP DP  RH WIND       PRES   REMARKS
FORT POLK      MOCLDY    73  71  93 CALM      29.96S
ALEXANDRIA INT MOCLDY    73  70  90 E7        29.94F
ALEXANDRIA     PTCLDY    72  70  93 CALM      29.96S FOG

$$

LAZ001-002-240800-
NORTHWEST LOUISIANA

CITY           SKY/WX    TMP DP  RH WIND       PRES   REMARKS
SHREVEPORT     MOCLDY    71  68  90 N3        29.98R
BARKSDALE AFB  MOCLDY    70  69  96 NE3       29.98R
DTN SHREVEPORT NOT AVBL

$$

LAZ014-016-240800-
NORTHEAST LOUISIANA

CITY           SKY/WX    TMP DP  RH WIND       PRES   REMARKS
MONROE         PTCLDY    71  67  87 CALM      29.98S
TALLULAH       PTCLDY    73  71  93 N3        29.97R

$$




USA.gov is the U.S. government's official web portal to all federal, state and local government web resources and services.